SHARC (42712 NORAD) Tracking and Keplerian Element Data

This shows tracking and keplerian element data for the satellite.

Feedback or suggestion? Click here.




ElementValue
Catalog42712
NameSHARC
Epoch Orbit8932
Epoch Day344.20300159
Epoch Year2018
RAAN188.2686
Inclination51.6328
Eccentricity0.0003731
Argument of Perigee159.0532
Mean Anonmoly201.0621
Mean Motion15.74925937
Decay Rate0.000524
L11 42712U 98067LT 18344.20300159 .00052400 00000-0 34791-3 0 9994
L22 42712 51.6328 188.2686 0003731 159.0532 201.0621 15.74925937 89327

Live tracking and technical data element details for SHARC (NORAD 42712). SHARC can be tracked NOW for your location showing map with azimuth and elevation plus other details from your city location.

Track the satellite on the map from your city or location and see movement details for azimuth, elevation, latitude, longitude, range, height, and movement on the map or in text.







IsCatalogInMostPopularTable: catalog: 42712, numindb: 151
Update: records affected: 1



GetName: 42712 SHARC

Hit Count: updated at: Tue, 11 Dec 2018 03:28:02 GMT